Date,TemperatureHighF,TemperatureAvgF,TemperatureLowF,DewpointHighF,DewpointAvgF,DewpointLowF,HumidityHigh,HumidityAvg,HumidityLow,PressureMaxIn,PressureMinIn,WindSpeedMaxMPH,WindSpeedAvgMPH,GustSpeedMaxMPH,PrecipitationSumIn
2013-1-1,51,33,17,26,11,-4,62,40,20,29.42,29.19,25,8,30,0.15
2013-1-2,43,23,12,12,2,-7,56,40,22,29.55,29.40,17,7,24,0.00
2013-1-3,39,17,4,4,-10,-19,56,30,19,29.64,29.49,12,5,12,0.00
2013-1-4,42,30,12,22,16,1,70,55,40,29.47,29.29,21,7,21,0.00
2013-1-5,57,34,19,23,14,8,78,49,19,29.77,29.33,17,4,18,0.00
2013-1-6,59,37,21,31,23,15,79,60,26,29.72,29.43,13,4,17,0.00
2013-1-7,48,32,18,31,23,14,86,69,43,29.91,29.46,13,4,13,0.00
2013-1-8,61,37,19,28,24,14,91,63,23,29.87,29.75,18,6,18,0.00
2013-1-9,50,36,21,33,26,17,86,68,36,29.91,29.47,18,5,18,0.00
2013-1-10,57,43,31,27,22,17,65,46,24,30.03,29.50,26,10,26,0.28
2013-1-11,46,36,24,38,28,18,95,74,43,30.03,29.74,4,2,4,0.06
2013-1-12,48,43,39,45,41,38,96,94,86,29.73,29.62,5,1,5,0.07
2013-1-13,52,47,42,49,46,41,96,94,90,29.65,29.47,11,3,13,0.00
2013-1-14,78,54,41,52,41,26,91,65,29,29.75,29.35,13,7,13,0.01
2013-1-15,50,39,31,29,25,22,76,59,41,29.82,29.73,10,3,10,0.00
2013-1-16,35,33,30,33,29,21,97,87,60,29.75,29.31,6,2,6,0.05
2013-1-17,56,37,28,38,26,-1,99,69,28,29.60,29.32,13,4,13,0.28
2013-1-18,37,22,13,6,-6,-16,67,31,18,29.95,29.58,17,7,17,0.11
2013-1-19,60,40,23,32,20,3,75,47,22,29.88,29.37,20,9,20,0.04
2013-1-20,66,44,28,34,20,2,74,40,21,29.41,29.00,30,13,42,1.52
2013-1-21,62,31,19,27,4,-8,75,34,19,29.92,29.41,17,5,21,0.52
2013-1-22,28,21,14,18,0,-12,79,42,24,30.06,29.74,18,7,24,0.00
2013-1-23,16,12,6,-4,-19,-25,46,24,19,30.13,30.05,21,8,22,0.00
2013-1-24,18,12,2,-17,-20,-26,27,22,18,30.19,30.03,23,12,27,0.00
2013-1-25,11,10,9,-18,-20,-23,27,24,20,30.26,30.19,19,9,21,0.00
2013-1-26,26,19,13,6,-6,-18,68,33,19,30.21,30.00,24,9,25,0.00
2013-1-27,30,21,14,-3,-7,-13,45,29,18,30.47,30.21,20,8,20,0.00
2013-1-28,34,25,16,23,4,-15,82,45,21,30.45,30.03,8,2,8,0.00
2013-1-29,36,31,26,30,25,21,84,78,69,30.19,30.03,8,3,8,0.07
2013-1-30,61,51,34,56,48,30,95,89,82,30.15,29.45,22,8,24,0.08
2013-1-31,62,56,46,58,50,29,92,82,46,29.43,28.92,31,17,36,0.20
2013-2-8,33,29,21,29,26,18,92,89,84,30.19,29.67,36,18,44,0.01
2013-2-9,22,19,15,18,12,-1,87,75,46,30.21,29.62,40,16,40,0.00
2013-2-10,41,23,13,6,-3,-12,47,32,20,30.44,30.22,18,7,21,0.00
2013-2-11,39,39,39,36,36,36,88,88,88,29.95,29.93,10,7,12,0.12
2013-2-12,48,46,43,29,28,26,56,49,46,29.71,29.69,20,14,24,0.20
2013-2-13,48,36,26,33,23,16,74,59,39,29.91,29.74,11,2,11,0.00
2013-2-14,46,36,28,24,20,16,75,53,33,30.03,29.74,11,4,14,0.00
2013-2-15,54,37,24,34,27,17,82,68,43,30.04,29.93,13,4,13,0.00
2013-2-16,36,33,28,29,27,22,83,78,61,29.99,29.93,11,4,14,0.00
2013-2-17,34,31,18,28,22,-9,80,72,28,29.99,29.38,35,7,35,0.02
2013-2-18,33,24,15,-2,-6,-9,37,27,19,30.18,29.66,24,12,36,0.00
2013-2-19,25,25,25,-7,-7,-7,24,24,24,30.18,30.18,4,4,10,0.00
2013-2-20,41,34,28,39,15,7,90,48,31,29.80,29.56,24,11,27,0.01
2013-2-21,32,27,25,11,8,3,51,44,33,30.03,29.79,20,10,27,0.00
2013-2-22,33,32,32,23,22,22,68,67,66,30.40,30.39,2,0,2,0.00
2013-2-23,37,33,32,27,24,22,71,68,66,30.39,30.30,2,0,2,0.00
2013-2-24,37,33,31,33,29,27,87,87,84,29.93,29.75,14,5,17,0.08
2013-2-25,43,34,28,31,27,21,87,74,53,30.29,29.94,8,1,11,0.21
2013-2-26,48,37,26,35,28,21,85,71,48,30.40,30.30,9,2,11,0.00
2013-2-27,42,41,39,39,38,36,91,90,89,29.77,29.58,17,9,17,0.41
2013-2-28,51,41,35,39,34,31,92,78,55,29.69,29.56,14,4,15,0.01
2013-3-1,43,38,36,31,29,25,78,68,56,29.72,29.57,12,5,14,0.00
2013-3-2,49,40,31,30,26,22,72,59,46,29.71,29.64,11,4,12,0.00
2013-3-3,41,35,33,31,25,24,74,68,62,29.68,29.65,9,4,11,0.00
2013-3-6,42,39,36,35,31,26,85,74,64,30.19,30.11,22,11,22,0.07
2013-3-7,38,34,32,29,28,26,85,78,63,30.14,30.06,32,16,32,0.05
2013-3-8,42,35,30,32,27,23,87,75,53,30.20,30.00,20,11,20,0.06
2013-3-9,42,36,27,30,24,20,76,61,50,30.40,30.20,21,6,21,0.02
2013-3-10,46,36,26,33,27,21,84,71,55,30.47,30.37,9,3,9,0.00
2013-3-11,56,44,36,38,33,28,82,67,43,30.38,30.20,11,6,11,0.00
2013-3-12,53,48,41,49,44,37,90,85,76,30.20,29.76,19,8,20,0.15
2013-3-13,52,51,46,49,48,42,91,90,87,29.78,29.75,10,4,13,0.00
2013-3-27,58,45,32,32,23,18,69,44,24,29.91,29.76,18,7,18,0.00
2013-3-28,50,44,38,34,32,28,85,64,43,30.05,29.91,11,6,11,0.01
2013-3-29,61,48,35,38,31,26,72,55,31,30.08,30.00,11,4,11,0.00
2013-3-30,59,47,33,32,28,22,70,50,26,30.14,30.04,12,4,12,0.00
2013-3-31,62,49,27,39,27,20,78,49,22,30.17,29.84,15,6,15,0.01
2013-4-1,66,50,36,47,38,7,94,67,28,29.81,29.52,16,8,16,0.13
2013-4-2,44,36,30,16,7,0,48,30,21,29.96,29.82,24,11,24,0.00
2013-4-3,51,40,30,16,9,4,48,30,19,30.18,29.95,26,11,29,0.00
2013-4-4,63,45,29,27,16,6,55,33,16,30.33,30.07,18,7,20,0.00
2013-4-5,64,50,40,30,26,15,64,42,17,30.07,29.65,18,8,21,0.00
2013-4-6,53,39,30,23,9,-2,53,30,19,30.39,29.91,28,9,28,0.00
2013-4-7,57,44,26,40,27,13,75,52,25,30.39,30.03,28,8,30,0.00
2013-4-8,68,54,44,48,39,32,86,61,26,30.16,29.98,11,6,17,0.00
2013-4-9,74,55,45,51,44,38,90,68,35,30.14,29.89,17,5,19,0.06
2013-4-10,67,52,46,48,45,41,91,78,49,30.07,29.91,11,3,11,0.19
2013-4-11,48,47,46,45,45,44,93,92,90,29.95,29.88,4,2,6,0.06
2013-4-12,45,40,38,39,35,29,97,85,57,30.25,29.85,15,8,20,0.35
2013-4-13,54,43,36,41,37,33,97,79,55,29.97,29.80,21,6,21,0.04
2013-4-14,62,49,41,45,34,25,88,58,31,30.25,29.95,17,5,22,0.00
2013-4-15,61,51,33,41,35,28,82,56,34,30.45,30.26,13,6,14,0.00
2013-4-16,45,45,45,38,38,38,75,75,75,30.44,30.44,4,4,6,0.00
2013-4-19,66,66,66,62,62,62,86,86,85,29.91,29.90,13,10,21,0.00
2013-4-20,67,57,46,63,41,23,92,60,30,30.45,29.82,20,9,21,0.30
2013-4-21,56,45,33,29,21,14,75,41,22,30.95,30.45,17,6,22,0.00
2013-4-22,53,43,31,38,31,26,85,65,37,31.06,30.88,17,6,21,0.00
2013-4-23,43,42,41,42,38,32,98,87,70,31.33,30.51,12,6,18,0.06
2013-4-25,56,49,43,39,36,32,74,61,40,30.53,30.42,4,1,4,0.19
2013-4-26,47,43,41,37,36,34,82,75,62,30.57,30.53,5,2,6,0.00
2013-5-5,70,52,36,44,39,32,93,66,33,30.61,30.51,14,3,14,0.00
2013-5-6,73,54,36,49,44,33,93,72,41,30.56,30.41,9,2,9,0.00
2013-5-7,84,65,42,60,52,41,95,65,41,30.44,30.34,12,4,12,0.00
2013-5-8,79,64,52,63,57,50,93,78,56,30.48,30.31,11,4,11,0.02
2013-5-9,73,59,56,61,56,54,97,90,64,30.32,30.14,5,2,5,0.40
2013-5-10,56,56,55,55,55,54,98,97,96,30.15,30.14,4,2,4,0.00
2013-5-11,78,68,63,62,60,58,87,76,58,30.01,29.94,22,7,23,0.01
2013-5-12,82,64,51,63,52,30,92,69,33,30.04,29.79,18,4,24,0.07
2013-5-13,71,55,44,40,30,22,66,41,17,30.29,30.05,17,6,19,0.00
2013-5-14,69,53,42,37,30,22,70,44,18,30.31,30.21,14,5,17,0.00
2013-5-15,46,42,39,36,33,31,82,70,57,30.31,30.29,4,1,4,0.00
2013-5-21,53,52,52,51,51,50,95,94,94,30.29,30.23,10,6,11,0.00
2013-5-22,60,55,51,56,52,50,96,90,79,30.34,30.12,13,3,16,0.37
2013-5-23,82,65,54,69,60,52,95,84,61,30.19,30.05,12,4,21,0.02
2013-5-24,74,65,53,68,62,52,96,89,77,30.07,29.89,15,4,16,0.50
2013-5-25,54,50,43,52,48,39,99,94,85,30.07,29.93,16,8,17,0.39
2013-5-26,63,50,41,44,40,38,95,71,41,30.33,29.93,21,8,21,0.06
2013-5-27,81,62,40,49,37,28,91,48,16,30.38,30.30,14,6,21,0.00
2013-5-30,72,70,68,65,64,64,86,81,77,30.29,30.26,0,0,0,0.00
2013-5-31,80,76,65,71,69,62,91,78,74,30.32,30.26,3,1,4,0.00
2013-6-1,104,85,79,71,69,64,74,62,31,30.32,29.88,11,3,18,0.00
2013-6-2,98,85,73,70,67,64,78,58,36,29.93,29.75,18,6,27,0.00
2013-6-3,88,72,60,68,63,48,93,74,52,29.92,29.81,10,3,12,0.35
2013-6-4,77,65,52,50,45,41,76,52,29,30.16,29.87,17,5,20,0.00
2013-6-5,79,66,52,51,46,38,76,53,26,30.25,30.15,14,4,14,0.00
2013-6-6,76,66,53,57,52,48,86,63,46,30.26,30.18,12,3,13,0.00